| time (UTC) | temp C | wind direction | speed KPH | gust KPH | rain 1hr cm | rain 24hr cm | rain mn cm | humidity % | barometer mb |
| 20260504212029 | 21 | 57 | 1.6 | 6.4 | 0.00 | 0.00 | 0.00 | 51 | 1035.4 |
| 20260504211028 | 20 | 85 | 1.6 | 3.2 | 0.00 | 0.00 | 0.00 | 52 | 1035.3 |
| 20260504210025 | 18 | 75 | 3.2 | 4.8 | 0.00 | 0.00 | 0.00 | 53 | 1035.4 |
| 20260504205017 | 18 | 74 | 3.2 | 4.8 | 0.00 | 0.00 | 0.00 | 59 | 1035.5 |
| 20260504204018 | 16 | 88 | 1.6 | 4.8 | 0.00 | 0.00 | 0.00 | 65 | 1035.6 |
| 20260504203114 | 15 | 90 | 3.2 | 6.4 | 0.00 | 0.00 | 0.00 | 74 | 1035.7 |
| 20260504202105 | 13 | 90 | 3.2 | 6.4 | 0.00 | 0.00 | 0.00 | 80 | 1035.7 |
| 20260504201104 | 11 | 90 | 4.8 | 6.4 | 0.00 | 0.00 | 0.00 | 85 | 1035.6 |
| 20260504200101 | 9 | 86 | 3.2 | 6.4 | 0.00 | 0.00 | 0.00 | 85 | 1035.6 |
| 20260504195055 | 8 | 109 | 4.8 | 6.4 | 0.00 | 0.00 | 0.00 | 83 | 1035.5 |
| 20260504194051 | 8 | 102 | 3.2 | 6.4 | 0.00 | 0.00 | 0.00 | 82 | 1035.4 |
| 20260504193112 | 8 | 85 | 3.2 | 6.4 | 0.00 | 0.00 | 0.00 | 81 | 1035.4 |
| 20260504192042 | 8 | 88 | 3.2 | 6.4 | 0.00 | 0.00 | 0.00 | 81 | 1035.4 |
| 20260504191039 | 9 | 57 | 3.2 | 4.8 | 0.00 | 0.00 | 0.00 | 81 | 1035.3 |
| 20260504190039 | 10 | 79 | 3.2 | 6.4 | 0.00 | 0.00 | 0.00 | 81 | 1035.2 |
| 20260504185031 | 10 | 75 | 3.2 | 6.4 | 0.00 | 0.00 | 0.00 | 81 | 1035.3 |
| 20260504184028 | 11 | 64 | 3.2 | 4.8 | 0.00 | 0.00 | 0.00 | 82 | 1035.2 |
| 20260504183025 | 11 | 84 | 3.2 | 6.4 | 0.00 | 0.00 | 0.00 | 84 | 1035.2 |
| 20260504182018 | 11 | 58 | 3.2 | 8.0 | 0.00 | 0.00 | 0.00 | 85 | 1035.1 |
| 20260504181016 | 10 | 45 | 3.2 | 8.0 | 0.00 | 0.00 | 0.00 | 84 | 1035.3 |
| 20260504180114 | 10 | 45 | 1.6 | 4.8 | 0.00 | 0.00 | 0.00 | 84 | 1035.2 |
| 20260504175130 | 10 | 57 | 3.2 | 6.4 | 0.00 | 0.00 | 0.00 | 83 | 1035.1 |
| 20260504174104 | 9 | 69 | 3.2 | 6.4 | 0.00 | 0.00 | 0.00 | 82 | 1035.0 |
| 20260504173102 | 9 | 82 | 3.2 | 6.4 | 0.00 | 0.00 | 0.00 | 81 | 1035.0 |
| 20260504172115 | 9 | 82 | 3.2 | 6.4 | 0.00 | 0.00 | 0.00 | 81 | 1035.0 |
| 20260504171052 | 10 | 93 | 3.2 | 6.4 | 0.00 | 0.00 | 0.00 | 81 | 1035.0 |
| 20260504151103 | 10 | 40 | 3.2 | 6.4 | 0.00 | 0.00 | 0.00 | 81 | 1035.4 |
| 20260504141042 | 9 | 65 | 3.2 | 6.4 | 0.00 | 0.00 | 0.00 | 83 | 1036.0 |
| 20260504130113 | 9 | 90 | 3.2 | 4.8 | 0.00 | 0.00 | 0.00 | 83 | 1036.4 |
| 20260504081114 | 11 | 17 | 3.2 | 6.4 | 0.00 | 0.00 | 0.00 | 76 | 1035.8 |
| 20260504080126 | 12 | 90 | 0.0 | 3.2 | 0.00 | 0.00 | 0.00 | 75 | 1035.7 |
| 20260504045030 | 13 | 311 | 3.2 | 8.0 | 0.00 | 0.00 | 0.00 | 71 | 1034.7 |
| 20260504044028 | 13 | 312 | 6.4 | 11.3 | 0.00 | 0.00 | 0.00 | 71 | 1034.8 |
| 20260504043044 | 13 | 305 | 6.4 | 11.3 | 0.00 | 0.00 | 0.00 | 70 | 1034.7 |
| 20260504042022 | 14 | 311 | 8.0 | 11.3 | 0.00 | 0.00 | 0.00 | 69 | 1034.7 |
| 20260504041018 | 14 | 276 | 1.6 | 6.4 | 0.00 | 0.00 | 0.00 | 68 | 1034.6 |
| 20260504040116 | 15 | 298 | 3.2 | 6.4 | 0.00 | 0.00 | 0.00 | 67 | 1034.6 |
| 20260504035110 | 15 | 271 | 3.2 | 6.4 | 0.00 | 0.00 | 0.00 | 67 | 1034.6 |
| 20260504034107 | 15 | 225 | 4.8 | 6.4 | 0.00 | 0.00 | 0.00 | 68 | 1034.7 |
| 20260504033147 | 15 | 249 | 3.2 | 6.4 | 0.00 | 0.00 | 0.00 | 67 | 1034.6 |
| 20260504032102 | 15 | 290 | 4.8 | 6.4 | 0.00 | 0.00 | 0.00 | 66 | 1034.7 |
| 20260504031102 | 15 | 301 | 4.8 | 8.0 | 0.00 | 0.00 | 0.00 | 65 | 1034.7 |
| 20260504030055 | 15 | 328 | 6.4 | 9.7 | 0.00 | 0.00 | 0.00 | 64 | 1034.6 |
| 20260504025052 | 16 | 282 | 4.8 | 9.7 | 0.00 | 0.00 | 0.00 | 64 | 1034.6 |
| 20260504024109 | 16 | 272 | 4.8 | 9.7 | 0.00 | 0.00 | 0.00 | 63 | 1034.7 |
| 20260504023045 | 16 | 249 | 4.8 | 8.0 | 0.00 | 0.00 | 0.00 | 63 | 1034.7 |
| 20260504022040 | 16 | 294 | 4.8 | 9.7 | 0.00 | 0.00 | 0.00 | 63 | 1034.7 |
| 20260504021059 | 16 | 307 | 4.8 | 11.3 | 0.00 | 0.00 | 0.00 | 62 | 1034.7 |
| 20260504020036 | 17 | 307 | 8.0 | 12.9 | 0.00 | 0.00 | 0.00 | 59 | 1034.9 |
| 20260504015033 | 17 | 297 | 3.2 | 8.0 | 0.00 | 0.00 | 0.00 | 57 | 1035.0 |
| 20260504014030 | 17 | 300 | 4.8 | 9.7 | 0.00 | 0.00 | 0.00 | 62 | 1035.2 |
| 20260504013025 | 16 | 314 | 6.4 | 12.9 | 0.00 | 0.00 | 0.00 | 63 | 1035.2 |
| 20260504012023 | 16 | 312 | 8.0 | 12.9 | 0.00 | 0.00 | 0.00 | 64 | 1035.5 |
| 20260504011021 | 15 | 310 | 8.0 | 12.9 | 0.00 | 0.00 | 0.00 | 65 | 1035.6 |
| 20260504010017 | 16 | 330 | 9.7 | 17.7 | 0.00 | 0.00 | 0.00 | 65 | 1035.8 |
| 20260504005116 | 16 | 327 | 6.4 | 11.3 | 0.00 | 0.00 | 0.00 | 65 | 1035.9 |
| 20260504004113 | 16 | 324 | 4.8 | 11.3 | 0.00 | 0.00 | 0.00 | 65 | 1035.9 |
| 20260504003110 | 16 | 241 | 1.6 | 6.4 | 0.00 | 0.00 | 0.00 | 69 | 1036.1 |
| 20260504002110 | 15 | 302 | 4.8 | 9.7 | 0.00 | 0.00 | 0.00 | 70 | 1036.3 |
| 20260504001106 | 15 | 310 | 8.0 | 12.9 | 0.00 | 0.00 | 0.00 | 68 | 1036.5 |
| 20260504000104 | 15 | 317 | 4.8 | 8.0 | 0.00 | 0.00 | 0.00 | 68 | 1036.6 |
| 20260503235103 | 14 | 311 | 6.4 | 12.9 | 0.00 | 0.00 | 0.00 | 69 | 1036.6 |
| 20260503234100 | 14 | 316 | 9.7 | 16.1 | 0.00 | 0.00 | 0.00 | 70 | 1036.7 |
| 20260503233058 | 14 | 323 | 9.7 | 16.1 | 0.00 | 0.00 | 0.00 | 70 | 1036.7 |
| 20260503232056 | 14 | 318 | 6.4 | 11.3 | 0.00 | 0.00 | 0.00 | 70 | 1036.8 |
| 20260503231053 | 14 | 345 | 6.4 | 12.9 | 0.00 | 0.00 | 0.00 | 70 | 1036.8 |
| 20260503230052 | 13 | 345 | 6.4 | 12.9 | 0.00 | 0.00 | 0.00 | 70 | 1036.8 |
| 20260503225050 | 14 | 327 | 6.4 | 11.3 | 0.00 | 0.00 | 0.00 | 70 | 1036.8 |
| 20260503224047 | 14 | 330 | 3.2 | 6.4 | 0.00 | 0.00 | 0.00 | 71 | 1036.9 |
| 20260503223045 | 13 | 351 | 6.4 | 9.7 | 0.00 | 0.00 | 0.00 | 71 | 1036.8 |
| 20260503222045 | 13 | 5 | 6.4 | 9.7 | 0.00 | 0.00 | 0.00 | 71 | 1036.9 |
| 20260503221045 | 13 | 5 | 4.8 | 11.3 | 0.00 | 0.00 | 0.00 | 71 | 1036.9 |
| 20260503220039 | 13 | 354 | 4.8 | 8.0 | 0.00 | 0.00 | 0.00 | 72 | 1036.9 |
| 20260503215036 | 13 | 54 | 3.2 | 6.4 | 0.00 | 0.00 | 0.00 | 73 | 1037.0 |
| 20260503214035 | 13 | 100 | 3.2 | 4.8 | 0.00 | 0.00 | 0.00 | 75 | 1037.0 |
| 20260503213032 | 13 | 77 | 3.2 | 6.4 | 0.00 | 0.00 | 0.00 | 75 | 1037.1 |